Location: Aulus
(42.7909°N, 1.3399°E)
Time: 07:13:10
(UTC+00:00)

DEBRIS - Pass Details

Date: 19 May 2025
Orbit: 278 x 14612 km, 49.5° (Epoch: 18 June)

Event Time Altitude Azimuth Distance (km) Brightness Sun altitude
Rises 20:22:04 0° 302° (WNW) 6,436 10.2 -11.0°
Reaches altitude 10° 20:28:16 10° 296° (WNW) 3,748 8.4 -11.8°
Maximum altitude 20:34:53 34° 234° (SW) 1,056 4.3 -12.7°
Enters shadow 20:36:58 16° 173° (S) 1,268 4.2 -13.0°
